Flag for U.S.A. Weather past 2 weeks in Babylon, New York, U.S.A.

Now
22 °F

Overcast.


Feels Like: 10 °F
Forecast: 13 / 25 °F
Wind: 12 mph from North

Location: Republic Airport

Current Time: Mar 5, 2015 at 11:16:27 PM

Latest Report: Mar 5, 2015 at 9:53 PM


Visibility: 10 mi

Pressure: 30.32 "Hg

Humidity: 57%

Dew point: 9 °F

Location of BabylonLocation

Historic Weather in Babylon — Graph

°F

Babylon temperature yesterday

Maximum temperature yesterday: 43 °F (at 1:53 PM)
Minimum temperature yesterday: 35 °F (at 5:53 AM)
Average temperature yesterday: 39 °F

Past Weeks' High & Low Weather Summary

 TemperatureHumidityPressure
High43 °F (Mar 4, 1:53 PM)100% (Mar 4, 11:53 PM)30.81 "Hg (Mar 4, 11:53 PM)
Low2 °F (Feb 20, 5:53 AM)27% (Feb 23, 3:53 PM)29.70 "Hg (Feb 19, 2:53 AM)
Average25 °F63%30.19 "Hg
* Reported Feb 18 9:53 PM — Mar 5 9:53 PM, Babylon, Weather by CustomWeather, © 2015

Note: Actual official high and low records may vary slightly from our data, if they occured in-between our weather recording intervals... More about our weather records

Advertising

Babylon weather history for previous 24 hours

 ConditionsComfort  
Time TempWeatherWind HumidityBarometerVisibility
9:53 PM
Thu, Mar 5
22 °FOvercast.12 mph57%30.32 "Hg10 mi
8:53 PM23 °FOvercast.8 mph63%30.29 "Hg10 mi
7:53 PM22 °FOvercast.13 mph72%30.25 "Hg10 mi
6:53 PM21 °FOvercast.9 mph74%30.25 "Hg10 mi
5:53 PM20 °FLight snow. Ice fog.13 mph85%30.21 "Hg2 mi
5:04 PM21 °FSnow. Ice fog.12 mph88%30.19 "Hg1 mi
4:04 PM23 °FLight snow. Ice fog.3 mph85%30.17 "Hg1 mi
3:53 PM23 °FLight snow. Ice fog.6 mph81%30.17 "Hg1 mi
3:04 PM23 °FLight snow. Overcast.5 mph81%30.18 "Hg1 mi
2:53 PM23 °FLight snow. Overcast.5 mph78%30.18 "Hg2 mi
2:03 PM23 °FSnow. Ice fog.12 mph85%30.14 "Hg1 mi
1:53 PM23 °FSnow. Ice fog.10 mph85%30.14 "Hg1 mi
12:53 PM24 °FSnow. Ice fog.12 mph84%30.16 "Hg1 mi
11:53 AM25 °FLight snow. Ice fog.12 mph85%30.14 "Hg1 mi
10:53 AM26 °FLight snow. Ice fog.9 mph84%30.12 "Hg1 mi
9:53 AM26 °FSnow. Ice fog.14 mph88%30.13 "Hg1 mi
8:53 AM27 °FLight snow. Ice fog.15 mph92%30.11 "Hg1 mi
8:00 AM31 °FSnow. Ice fog.15 mph92%30.06 "Hg1 mi
6:53 AM33 °FLight snow. Fog.7 mph92%30.02 "Hg1 mi
5:53 AM34 °FLight snow. Fog.7 mph88%30.00 "Hg2 mi
4:53 AM35 °FLight snow. Fog.9 mph85%29.98 "Hg3 mi
3:53 AM37 °FLight rain. Mostly cloudy.12 mph89%29.92 "Hg10 mi
2:53 AM38 °FLight rain. Fog.5 mph97%29.91 "Hg5 mi
1:53 AM39 °FLight rain. Fog.5 mph93%29.90 "Hg5 mi
12:53 AM40 °FLight rain. Fog.5 mph93%29.90 "Hg4 mi
11:53 PM
Wed, Mar 4
39 °FFog.3 mph100%29.90 "Hg1 mi
Weather by CustomWeather, © 2015

See weather overviewHow to use our weather pages